Time,TemperatureF,DewpointF,PressureIn,WindDirection,WindDirectionDegrees,WindSpeedMPH,WindSpeedGustMPH,Humidity,HourlyPrecipIn,Conditions,Clouds,dailyrainin,SoftwareType,DateUTC
2013-04-17 00:00:00,41.7,38.0,30.19,South,191,0.0,-999.0,86,-99.99,,,0.00,weatherlink.com 1.10,2013-04-17 07:00:00,
2013-04-17 10:45:00,63.1,28.0,30.27,ENE,69,0.0,-999.0,27,-99.99,,,0.00,weatherlink.com 1.10,2013-04-17 17:45:00,
2013-04-17 11:00:00,63.8,31.0,30.27,North,9,1.0,-999.0,29,-99.99,,,0.00,weatherlink.com 1.10,2013-04-17 18:00:00,
2013-04-17 11:15:00,64.3,30.0,30.27,NE,45,3.0,-999.0,28,-99.99,,,0.00,weatherlink.com 1.10,2013-04-17 18:15:00,
2013-04-17 11:30:00,65.4,30.0,30.27,NE,54,4.0,-999.0,27,-99.99,,,0.00,weatherlink.com 1.10,2013-04-17 18:30:00,
2013-04-17 11:45:00,66.1,30.0,30.27,North,5,1.0,-999.0,26,-99.99,,,0.00,weatherlink.com 1.10,2013-04-17 18:45:00,
2013-04-17 12:00:00,66.6,32.0,30.27,ENE,65,1.0,-999.0,28,-99.99,,,0.00,weatherlink.com 1.10,2013-04-17 19:00:00,
2013-04-17 12:15:00,66.9,29.0,30.27,SSE,155,0.0,-999.0,24,-99.99,,,0.00,weatherlink.com 1.10,2013-04-17 19:15:00,
2013-04-17 12:30:00,67.7,31.0,30.26,East,81,3.0,-999.0,25,-99.99,,,0.00,weatherlink.com 1.10,2013-04-17 19:30:00,
2013-04-17 12:45:00,68.1,29.0,30.25,North,11,3.0,-999.0,23,-99.99,,,0.00,weatherlink.com 1.10,2013-04-17 19:45:00,
2013-04-17 13:00:00,67.7,30.0,30.25,North,10,3.0,-999.0,24,-99.99,,,0.00,weatherlink.com 1.10,2013-04-17 20:00:00,
2013-04-17 13:15:00,67.9,28.0,30.25,SE,134,0.0,-999.0,22,-99.99,,,0.00,weatherlink.com 1.10,2013-04-17 20:15:00,
2013-04-17 13:30:00,69.1,33.0,30.24,East,87,0.0,-999.0,26,-99.99,,,0.00,weatherlink.com 1.10,2013-04-17 20:30:00,
2013-04-17 13:45:00,68.4,28.0,30.23,North,9,0.0,-999.0,22,-99.99,,,0.00,weatherlink.com 1.10,2013-04-17 20:45:00,
2013-04-17 14:00:00,69.6,32.0,30.23,SE,134,0.0,-999.0,25,-99.99,,,0.00,weatherlink.com 1.10,2013-04-17 21:00:00,
2013-04-17 14:15:00,70.3,31.0,30.23,East,88,0.0,-999.0,23,-99.99,,,0.00,weatherlink.com 1.10,2013-04-17 21:15:00,
2013-04-17 14:30:00,70.3,28.0,30.22,ENE,76,0.0,-999.0,21,-99.99,,,0.00,weatherlink.com 1.10,2013-04-17 21:30:00,
2013-04-17 14:45:00,70.4,29.0,30.22,NNW,346,0.0,-999.0,21,-99.99,,,0.00,weatherlink.com 1.10,2013-04-17 21:45:00,
2013-04-17 15:00:00,69.9,28.0,30.20,NNE,32,0.0,-999.0,21,-99.99,,,0.00,weatherlink.com 1.10,2013-04-17 22:00:00,
2013-04-17 15:15:00,69.4,30.0,30.20,NNW,348,0.0,-999.0,23,-99.99,,,0.00,weatherlink.com 1.10,2013-04-17 22:15:00,
2013-04-17 15:30:00,69.4,29.0,30.20,SSE,166,0.0,-999.0,22,-99.99,,,0.00,weatherlink.com 1.10,2013-04-17 22:30:00,
2013-04-17 15:45:00,69.1,27.0,30.19,North,360,0.0,-999.0,21,-99.99,,,0.00,weatherlink.com 1.10,2013-04-17 22:45:00,
2013-04-17 16:00:00,69.2,28.0,30.19,SE,125,0.0,-999.0,21,-99.99,,,0.00,weatherlink.com 1.10,2013-04-17 23:00:00,
2013-04-17 16:15:00,69.1,30.0,30.18,NNE,22,0.0,-999.0,23,-99.99,,,0.00,weatherlink.com 1.10,2013-04-17 23:15:00,
2013-04-17 16:30:00,69.1,31.0,30.18,North,10,0.0,-999.0,24,-99.99,,,0.00,weatherlink.com 1.10,2013-04-17 23:30:00,
2013-04-17 16:45:00,69.2,29.0,30.17,NE,55,0.0,-999.0,22,-99.99,,,0.00,weatherlink.com 1.10,2013-04-17 23:45:00,
2013-04-17 17:00:00,69.2,28.0,30.17,NNE,22,0.0,-999.0,21,-99.99,,,0.00,weatherlink.com 1.10,2013-04-18 00:00:00,
2013-04-17 17:15:00,69.1,26.0,30.17,East,92,0.0,-999.0,20,-99.99,,,0.00,weatherlink.com 1.10,2013-04-18 00:15:00,
2013-04-17 17:30:00,69.1,26.0,30.17,NE,51,0.0,-999.0,20,-99.99,,,0.00,weatherlink.com 1.10,2013-04-18 00:30:00,
2013-04-17 17:45:00,68.6,25.0,30.17,NNE,30,0.0,-999.0,19,-99.99,,,0.00,weatherlink.com 1.10,2013-04-18 00:45:00,
2013-04-17 18:01:00,67.2,34.0,30.17,NE,53,0.0,-999.0,29,-99.99,,,0.00,weatherlink.com 1.10,2013-04-18 01:01:00,
2013-04-17 18:16:00,65.9,34.0,30.17,NE,53,0.0,-999.0,30,-99.99,,,0.00,weatherlink.com 1.10,2013-04-18 01:16:00,
2013-04-17 18:31:00,64.3,30.0,30.17,NE,53,0.0,-999.0,28,-99.99,,,0.00,weatherlink.com 1.10,2013-04-18 01:31:00,
2013-04-17 18:46:00,66.1,25.0,30.17,NE,54,0.0,-999.0,21,-99.99,,,0.00,weatherlink.com 1.10,2013-04-18 01:46:00,
2013-04-17 19:01:00,63.8,36.0,30.18,NE,48,0.0,-999.0,35,-99.99,,,0.00,weatherlink.com 1.10,2013-04-18 02:01:00,
2013-04-17 19:31:00,59.5,40.0,30.19,NE,42,0.0,-999.0,49,-99.99,,,0.00,weatherlink.com 1.10,2013-04-18 02:31:00,
2013-04-17 19:46:00,57.5,40.0,30.19,NE,42,0.0,-999.0,53,-99.99,,,0.00,weatherlink.com 1.10,2013-04-18 02:46:00,
2013-04-17 20:01:00,55.5,40.0,30.19,NE,42,0.0,-999.0,56,-99.99,,,0.00,weatherlink.com 1.10,2013-04-18 03:01:00,
2013-04-17 20:16:00,54.2,40.0,30.20,NE,42,0.0,-999.0,59,-99.99,,,0.00,weatherlink.com 1.10,2013-04-18 03:16:00,
2013-04-17 20:31:00,52.9,41.0,30.20,NE,42,0.0,-999.0,65,-99.99,,,0.00,weatherlink.com 1.10,2013-04-18 03:31:00,
2013-04-17 20:46:00,51.7,41.0,30.21,NE,42,0.0,-999.0,68,-99.99,,,0.00,weatherlink.com 1.10,2013-04-18 03:46:00,
2013-04-17 21:01:00,50.7,41.0,30.22,NE,42,0.0,-999.0,69,-99.99,,,0.00,weatherlink.com 1.10,2013-04-18 04:01:00,
2013-04-17 21:16:00,49.5,41.0,30.22,NE,42,0.0,-999.0,72,-99.99,,,0.00,weatherlink.com 1.10,2013-04-18 04:16:00,
2013-04-17 21:31:00,48.6,41.0,30.22,NE,42,0.0,-999.0,75,-99.99,,,0.00,weatherlink.com 1.10,2013-04-18 04:31:00,
2013-04-17 21:46:00,48.0,41.0,30.23,NE,42,0.0,-999.0,76,-99.99,,,0.00,weatherlink.com 1.10,2013-04-18 04:46:00,
2013-04-17 22:01:00,47.3,41.0,30.23,NE,42,0.0,-999.0,78,-99.99,,,0.00,weatherlink.com 1.10,2013-04-18 05:01:00,
2013-04-17 22:16:00,46.5,40.0,30.24,NE,42,0.0,-999.0,79,-99.99,,,0.00,weatherlink.com 1.10,2013-04-18 05:16:00,
2013-04-17 22:31:00,45.8,40.0,30.23,NE,42,0.0,-999.0,81,-99.99,,,0.00,weatherlink.com 1.10,2013-04-18 05:31:00,
2013-04-17 22:46:00,44.9,40.0,30.23,NE,42,0.0,-999.0,82,-99.99,,,0.00,weatherlink.com 1.10,2013-04-18 05:46:00,
2013-04-17 23:01:00,44.3,40.0,30.24,NE,42,0.0,-999.0,84,-99.99,,,0.00,weatherlink.com 1.10,2013-04-18 06:01:00,
2013-04-17 23:16:00,44.2,40.0,30.23,NE,42,0.0,-999.0,86,-99.99,,,0.00,weatherlink.com 1.10,2013-04-18 06:16:00,
2013-04-17 23:31:00,44.0,40.0,30.24,NE,43,0.0,-999.0,86,-99.99,,,0.00,weatherlink.com 1.10,2013-04-18 06:31:00,
2013-04-17 23:46:00,43.4,40.0,30.24,NE,43,0.0,-999.0,86,-99.99,,,0.00,weatherlink.com 1.10,2013-04-18 06:46:00,